DLH2N EDDM-EDDB

Flight info

Callsign DLH2N
Flight time 0h 47m
Altitude 29000
Route AKINI1S AKINI Y104 MAMOR L132 RUDNO T203 TIVDA DCT ETVIS DCT NAVEK DCT GAVLI T203 ATGUP ATGUP1R
Aircraft B738/M-SDE2E3FGHIRWXY/LB1

Departure

Time 2026-05-04 18:27
Airport Munich Airport (EDDM)

Arrival

Time 2026-05-04 19:15
Airport Berlin Brandenburg Airport (EDDB)
Time Latitude Longitude Altitude Speed Heading
2026-05-04 17:48 48.35732 11.79694 1474 ft 0 kts 83°
2026-05-04 18:16 48.35730 11.79668 1470 ft 4 kts 82°
2026-05-04 18:16 48.35725 11.79628 1479 ft 4 kts 77°
2026-05-04 18:17 48.35705 11.79556 1470 ft 4 kts 34°
2026-05-04 18:17 48.35692 11.79549 1479 ft 0 kts 353°
2026-05-04 18:20 48.35693 11.79549 1479 ft 0 kts 353°
2026-05-04 18:21 48.35715 11.79545 1470 ft 7 kts 353°
2026-05-04 18:21 48.35788 11.79531 1473 ft 14 kts 351°
2026-05-04 18:21 48.35910 11.79506 1480 ft 21 kts 354°
2026-05-04 18:21 48.36064 11.79482 1474 ft 22 kts 354°
2026-05-04 18:22 48.36208 11.79508 1479 ft 21 kts 50°
2026-05-04 18:22 48.36236 11.79723 1474 ft 21 kts 81°
2026-05-04 18:22 48.36249 11.79936 1478 ft 20 kts 84°
2026-05-04 18:22 48.36265 11.80145 1472 ft 20 kts 82°
2026-05-04 18:23 48.36285 11.80365 1484 ft 22 kts 82°
2026-05-04 18:23 48.36302 11.80603 1484 ft 25 kts 84°
2026-05-04 18:23 48.36324 11.80907 1475 ft 33 kts 83°
2026-05-04 18:23 48.36351 11.81269 1478 ft 36 kts 83°
2026-05-04 18:24 48.36380 11.81642 1484 ft 36 kts 83°
2026-05-04 18:24 48.36394 11.81921 1474 ft 15 kts 96°
2026-05-04 18:24 48.36467 11.81999 1474 ft 15 kts 354°
2026-05-04 18:24 48.36565 11.81982 1474 ft 5 kts 353°
2026-05-04 18:26 48.36567 11.81981 1474 ft 2 kts 353°
2026-05-04 18:26 48.36625 11.81969 1474 ft 13 kts 349°
2026-05-04 18:26 48.36676 11.81874 1484 ft 13 kts 266°
2026-05-04 18:27 48.36654 11.81665 1483 ft 46 kts 260°
2026-05-04 18:27 48.36588 11.80810 1484 ft 116 kts 263°
2026-05-04 18:27 48.36477 11.79297 1521 ft 169 kts 265°
2026-05-04 18:27 48.36351 11.77470 2221 ft 173 kts 264°
2026-05-04 18:28 48.36206 11.75609 2896 ft 188 kts 264°
2026-05-04 18:28 48.36047 11.73640 3551 ft 201 kts 263°
2026-05-04 18:28 48.35868 11.71434 3796 ft 228 kts 263°
2026-05-04 18:28 48.35864 11.68988 4229 ft 239 kts 283°
2026-05-04 18:29 48.36634 11.66783 4841 ft 241 kts 313°
2026-05-04 18:29 48.38029 11.65403 5442 ft 244 kts 342°
2026-05-04 18:29 48.39719 11.64911 5951 ft 253 kts 350°
2026-05-04 18:29 48.41477 11.64408 6477 ft 260 kts 348°
2026-05-04 18:30 48.45112 11.63573 7699 ft 270 kts
2026-05-04 18:30 48.47029 11.64117 8126 ft 290 kts 20°
2026-05-04 18:30 48.48832 11.65580 8780 ft 300 kts 37°
2026-05-04 18:31 48.50322 11.67826 9553 ft 305 kts 55°
2026-05-04 18:31 48.51556 11.70467 10301 ft 311 kts 56°
2026-05-04 18:31 48.52817 11.73134 11101 ft 313 kts 56°
2026-05-04 18:31 48.54075 11.75771 11901 ft 315 kts 56°
2026-05-04 18:32 48.55370 11.78472 12680 ft 319 kts 56°
2026-05-04 18:32 48.56681 11.81199 13460 ft 322 kts 56°
2026-05-04 18:32 48.58006 11.83954 14181 ft 326 kts 56°
2026-05-04 18:32 48.59342 11.86733 14872 ft 329 kts 55°
2026-05-04 18:33 48.60696 11.89548 15566 ft 333 kts 55°
2026-05-04 18:33 48.62199 11.92269 16019 ft 346 kts 41°
2026-05-04 18:33 48.64244 11.94389 16186 ft 367 kts 30°
2026-05-04 18:33 48.66533 11.96315 16343 ft 387 kts 28°
2026-05-04 18:34 48.68959 11.98280 16555 ft 403 kts 27°
2026-05-04 18:34 48.71453 12.00306 17056 ft 410 kts 28°
2026-05-04 18:34 48.73971 12.02384 17734 ft 412 kts 28°
2026-05-04 18:34 48.76487 12.04494 18400 ft 414 kts 28°
2026-05-04 18:35 48.79006 12.06631 18964 ft 417 kts 28°
2026-05-04 18:35 48.81509 12.08771 19494 ft 420 kts 28°
2026-05-04 18:35 48.84062 12.10965 20027 ft 423 kts 28°
2026-05-04 18:35 48.86665 12.13207 20579 ft 426 kts 28°
2026-05-04 18:36 48.89216 12.15407 21089 ft 429 kts 28°
2026-05-04 18:36 48.91851 12.17683 21605 ft 432 kts 28°
2026-05-04 18:36 48.94442 12.19924 22093 ft 435 kts 28°
2026-05-04 18:36 48.97085 12.22210 22587 ft 438 kts 28°
2026-05-04 18:37 48.99749 12.24519 23077 ft 441 kts 28°
2026-05-04 18:37 49.02426 12.26840 23539 ft 444 kts 28°
2026-05-04 18:37 49.05116 12.29176 23939 ft 446 kts 28°
2026-05-04 18:37 49.07817 12.31525 24344 ft 449 kts 28°
2026-05-04 18:38 49.10534 12.33891 24746 ft 451 kts 28°
2026-05-04 18:38 49.13271 12.36277 25114 ft 454 kts 28°
2026-05-04 18:38 49.16024 12.38680 25490 ft 456 kts 28°
2026-05-04 18:38 49.18792 12.41100 25863 ft 458 kts 28°
2026-05-04 18:39 49.21569 12.43530 26236 ft 460 kts 28°
2026-05-04 18:39 49.24315 12.45937 26594 ft 462 kts 28°
2026-05-04 18:39 49.27111 12.48391 26943 ft 464 kts 28°
2026-05-04 18:39 49.29925 12.50863 27282 ft 467 kts 28°
2026-05-04 18:40 49.32748 12.53347 27622 ft 469 kts 28°
2026-05-04 18:40 49.35502 12.56067 27947 ft 472 kts 34°
2026-05-04 18:40 49.38104 12.59122 28374 ft 472 kts 37°
2026-05-04 18:40 49.40680 12.62242 28869 ft 470 kts 37°
2026-05-04 18:41 49.43293 12.65283 28928 ft 473 kts 32°
2026-05-04 18:41 49.49102 12.69922 28944 ft 467 kts 22°
2026-05-04 18:42 49.54983 12.74057 28951 ft 464 kts 23°
2026-05-04 18:42 49.60834 12.78320 28954 ft 466 kts 24°
2026-05-04 18:43 49.66777 12.82068 28943 ft 463 kts 12°
2026-05-04 18:43 49.73117 12.83672 28951 ft 461 kts
2026-05-04 18:44 49.79493 12.85019 28947 ft 462 kts
2026-05-04 18:44 49.85857 12.86439 28952 ft 462 kts
2026-05-04 18:45 49.91143 12.87663 28955 ft 462 kts
2026-05-04 18:45 49.97508 12.89154 28963 ft 461 kts
2026-05-04 18:46 50.03848 12.90642 28963 ft 461 kts
2026-05-04 18:46 50.10181 12.92129 28965 ft 460 kts
2026-05-04 18:47 50.16500 12.93616 28970 ft 459 kts
2026-05-04 18:47 50.22791 12.95101 28970 ft 459 kts
2026-05-04 18:48 50.29074 12.96993 28959 ft 463 kts 15°
2026-05-04 18:48 50.34960 13.01212 28972 ft 467 kts 25°
2026-05-04 18:49 50.40719 13.05935 28970 ft 467 kts 25°
2026-05-04 18:49 50.46525 13.10575 28970 ft 468 kts 24°
2026-05-04 18:50 50.52348 13.15188 28976 ft 469 kts 25°
2026-05-04 18:50 50.58184 13.19866 28979 ft 471 kts 25°
2026-05-04 18:51 50.64032 13.24579 28976 ft 473 kts 25°
2026-05-04 18:51 50.69858 13.29283 28971 ft 474 kts 25°
2026-05-04 18:52 50.75729 13.34034 28978 ft 475 kts 25°
2026-05-04 18:52 50.81711 13.38446 28973 ft 472 kts 15°
2026-05-04 18:53 50.88096 13.40624 28976 ft 469 kts
2026-05-04 18:53 50.94522 13.42471 28971 ft 469 kts
2026-05-04 18:54 51.00906 13.44375 28970 ft 469 kts
2026-05-04 18:54 51.07325 13.46362 28968 ft 469 kts
2026-05-04 18:55 51.13732 13.48373 28969 ft 469 kts
2026-05-04 18:55 51.23340 13.51401 28966 ft 469 kts
2026-05-04 18:56 51.29706 13.53411 28965 ft 468 kts
2026-05-04 18:56 51.36085 13.55431 28959 ft 466 kts
2026-05-04 18:57 51.42453 13.57451 28410 ft 462 kts
2026-05-04 18:57 51.45589 13.58451 27889 ft 456 kts
2026-05-04 18:57 51.48680 13.59438 27371 ft 450 kts
2026-05-04 18:58 51.51740 13.60415 26834 ft 446 kts
2026-05-04 18:58 51.54767 13.61382 26318 ft 441 kts
2026-05-04 18:58 51.57762 13.62339 25809 ft 437 kts
2026-05-04 18:58 51.60733 13.63290 25295 ft 433 kts
2026-05-04 18:59 51.63683 13.64236 24795 ft 430 kts
2026-05-04 18:59 51.66606 13.65174 24221 ft 429 kts
2026-05-04 18:59 51.69530 13.66112 23636 ft 428 kts
2026-05-04 18:59 51.72407 13.67037 23061 ft 425 kts
2026-05-04 19:00 51.75298 13.67970 22526 ft 421 kts
2026-05-04 19:00 51.78161 13.68894 21993 ft 417 kts
2026-05-04 19:00 51.80995 13.69811 21446 ft 413 kts
2026-05-04 19:00 51.83789 13.70716 20811 ft 407 kts
2026-05-04 19:01 51.86557 13.71613 20024 ft 405 kts
2026-05-04 19:01 51.89314 13.72506 19280 ft 403 kts
2026-05-04 19:01 51.92053 13.73395 18630 ft 400 kts
2026-05-04 19:01 51.94731 13.74549 17956 ft 398 kts 19°
2026-05-04 19:02 51.97205 13.76324 17289 ft 395 kts 24°
2026-05-04 19:02 51.99632 13.78235 16647 ft 390 kts 24°
2026-05-04 19:02 52.02055 13.80185 15993 ft 387 kts 25°
2026-05-04 19:02 52.04260 13.81973 15398 ft 384 kts 25°
2026-05-04 19:03 52.06637 13.83909 14779 ft 380 kts 25°
2026-05-04 19:03 52.08986 13.85830 14163 ft 376 kts 25°
2026-05-04 19:03 52.11313 13.87738 13493 ft 372 kts 25°
2026-05-04 19:03 52.13614 13.89628 12797 ft 369 kts 25°
2026-05-04 19:04 52.15890 13.91502 12174 ft 364 kts 25°
2026-05-04 19:04 52.18141 13.93359 11541 ft 360 kts 25°
2026-05-04 19:04 52.20362 13.95196 10918 ft 357 kts 25°
2026-05-04 19:04 52.22556 13.97015 10411 ft 348 kts 25°
2026-05-04 19:05 52.24647 13.98758 10295 ft 327 kts 25°
2026-05-04 19:05 52.26613 14.00408 10174 ft 309 kts 25°
2026-05-04 19:05 52.28516 14.01806 10022 ft 291 kts 11°
2026-05-04 19:05 52.30474 14.02383 9657 ft 283 kts
2026-05-04 19:06 52.32426 14.02864 9164 ft 282 kts
2026-05-04 19:06 52.34340 14.03320 8714 ft 281 kts
2026-05-04 19:06 52.36250 14.03763 8279 ft 274 kts
2026-05-04 19:06 52.38133 14.04190 7636 ft 273 kts
2026-05-04 19:07 52.40016 14.04550 7002 ft 271 kts 359°
2026-05-04 19:07 52.41849 14.04153 6546 ft 260 kts 345°
2026-05-04 19:07 52.43420 14.03005 6377 ft 237 kts 317°
2026-05-04 19:07 52.44296 14.00941 6228 ft 214 kts 284°
2026-05-04 19:08 52.44555 13.98651 6102 ft 196 kts 276°
2026-05-04 19:08 52.44716 13.96483 5823 ft 190 kts 275°
2026-05-04 19:08 52.44866 13.94325 5424 ft 191 kts 275°
2026-05-04 19:08 52.44922 13.92169 5153 ft 188 kts 259°
2026-05-04 19:09 52.44617 13.90117 4942 ft 190 kts 256°
2026-05-04 19:09 52.44265 13.88009 4684 ft 192 kts 253°
2026-05-04 19:09 52.43838 13.85936 4417 ft 192 kts 250°
2026-05-04 19:09 52.43372 13.83898 4151 ft 190 kts 249°
2026-05-04 19:10 52.42896 13.81885 3906 ft 189 kts 249°
2026-05-04 19:10 52.42422 13.79904 3653 ft 186 kts 249°
2026-05-04 19:10 52.41945 13.77914 3415 ft 189 kts 249°
2026-05-04 19:10 52.41464 13.75905 3162 ft 189 kts 249°
2026-05-04 19:11 52.40984 13.73903 2910 ft 188 kts 249°
2026-05-04 19:11 52.40507 13.71907 2656 ft 188 kts 250°
2026-05-04 19:11 52.40031 13.69914 2403 ft 187 kts 250°
2026-05-04 19:11 52.39568 13.67976 2156 ft 177 kts 250°
2026-05-04 19:12 52.39141 13.66187 1954 ft 163 kts 250°
2026-05-04 19:12 52.38339 13.62822 1513 ft 157 kts 251°
2026-05-04 19:12 52.37946 13.61166 1326 ft 155 kts 251°
2026-05-04 19:13 52.37554 13.59514 1079 ft 157 kts 251°
2026-05-04 19:13 52.37160 13.57867 889 ft 155 kts 250°
2026-05-04 19:13 52.36770 13.56227 681 ft 154 kts 251°
2026-05-04 19:13 52.36381 13.54589 470 ft 155 kts 251°
2026-05-04 19:14 52.36033 13.53116 302 ft 155 kts 251°
2026-05-04 19:14 52.35655 13.51504 158 ft 150 kts 251°
2026-05-04 19:14 52.35352 13.50256 156 ft 86 kts 247°
2026-05-04 19:14 52.35226 13.49537 157 ft 60 kts 274°
2026-05-04 19:15 52.35327 13.49228 148 ft 1 kts 21°
2026-05-04 19:15 52.35327 13.49229 148 ft 0 kts 27°
2026-05-04 19:16 52.35341 13.49258 148 ft 10 kts 51°
2026-05-04 19:16 52.35385 13.49394 147 ft 17 kts 70°
2026-05-04 19:16 52.35439 13.49602 147 ft 23 kts 66°
2026-05-04 19:16 52.35505 13.49872 147 ft 28 kts 84°
2026-05-04 19:17 52.35566 13.50163 147 ft 26 kts 68°
2026-05-04 19:17 52.35628 13.50423 147 ft 14 kts 69°
2026-05-04 19:17 52.35673 13.50610 147 ft 13 kts 68°
2026-05-04 19:17 52.35711 13.50702 147 ft 10 kts 27°
2026-05-04 19:18 52.35780 13.50680 147 ft 10 kts 337°
2026-05-04 19:18 52.35846 13.50645 149 ft 10 kts 350°
2026-05-04 19:18 52.35913 13.50634 150 ft 10 kts 355°
2026-05-04 19:18 52.35983 13.50610 150 ft 11 kts 339°
2026-05-04 19:19 52.36070 13.50555 150 ft 16 kts 339°
2026-05-04 19:19 52.36196 13.50479 150 ft 24 kts 340°
2026-05-04 19:19 52.36380 13.50373 150 ft 26 kts 341°
2026-05-04 19:19 52.36449 13.50442 153 ft 11 kts 87°
2026-05-04 19:20 52.36466 13.50534 153 ft 0 kts 70°
2026-05-04 19:20 52.36467 13.50536 154 ft 0 kts 68°